sat.trackr.live / text

‹ back to catalog

STARLINK-37021

NORAD 68105 · 2026-044E

PAYLOAD ACTIVE UNKNOWN

§ Identity

Operator
Country
US
Launch date
2026-03-08
Launch site
AFWTR
Launch vehicle
Mass (kg)
RCS (m²)

Purposes: comms

External: N2YO · Heavens-Above · Gunter

§ Orbital elements

Epoch: 2026-09-20T04:00:59.082336Z

Period
93.91 min
Inclination
97.2847°
Eccentricity
0.0002486
Mean motion
15.33460546 rev/d
Perigee alt
463.8 km
Apogee alt
467.2 km
Semi-major
6,843.6 km
B*
6.3174e-4
RAAN
222.0748°
Arg perigee
91.6881°
Mean anomaly
268.4647°
Rev number
3,138

§ Raw data

STARLINK-370211 68105U 26044E   26263.16735049  .00020386  00000+0  63174-3 0  99922 68105  97.2847 222.0748 0002486  91.6881 268.4647 15.33460546 31386

JSON: /api/v1/satellites/68105 · /tle

For live sub-satellite position, see the globe view (requires WebGL).

§ Visibility from observer

Set your observer location to see the next 7 days of passes ≥ 10°. The values pass through the URL so the page stays shareable.

No JS? Fill the form by hand. The geolocation button needs JavaScript.